Terminal Aerodrome Forecast
Issued by NWS

Home | Current Version | Previous Version | Text Only | Print | Product List | Glossary Off
Versions: 1 2 3 4 5 6 7 8 9 10 11 12 13 14 15 16 17 18 19 20 21 22 23

000
FTUS43 KMPX 230853 AAA
TAFRWF
TAF AMD
KRWF 230853Z 2309/2406 16015G24KT P6SM VCSH SCT050 BKN090
      WS020/18045KT
      TEMPO 2309/2312 6SM -TSRA BKN040CB OVC100
     FM231400 18016G22KT 6SM SHRA SCT025 OVC040
     FM231800 19014G20KT P6SM VCSH OVC050 PROB30 2319/2321 5SM TSRA
      BKN030CB
     FM240000 19008KT 6SM SHRA BKN080=

USA.gov is the U.S. government's official web portal to all federal, state and local government web resources and services.